Time,TemperatureF,DewpointF,PressureIn,WindDirection,WindDirectionDegrees,WindSpeedMPH,WindSpeedGustMPH,Humidity,HourlyPrecipIn,Conditions,Clouds,dailyrainin,SoftwareType,DateUTC
2013-03-20 00:02:00,24.0,14.0,30.27,North,356,0.0,0.0,66,0.00,,,0.00,,2013-03-20 06:02:00,
2013-03-20 00:12:00,24.0,14.0,30.27,North,356,0.0,0.0,66,0.00,,,0.00,,2013-03-20 06:12:00,
2013-03-20 00:22:00,24.0,15.0,30.27,North,357,0.0,0.0,68,0.00,,,0.00,,2013-03-20 06:22:00,
2013-03-20 00:32:00,23.0,15.0,30.27,North,357,0.0,0.0,70,0.00,,,0.00,,2013-03-20 06:32:00,
2013-03-20 00:42:00,23.0,15.0,30.27,North,357,0.0,0.0,70,0.00,,,0.00,,2013-03-20 06:42:00,
2013-03-20 00:53:00,23.0,15.0,30.27,North,357,0.0,0.0,71,0.00,,,0.00,,2013-03-20 06:53:00,
2013-03-20 01:02:00,22.0,14.0,30.26,North,357,0.0,0.0,71,0.00,,,0.00,,2013-03-20 07:02:00,
2013-03-20 01:12:00,22.0,14.0,30.26,North,357,0.0,0.0,71,0.00,,,0.00,,2013-03-20 07:12:00,
2013-03-20 01:22:00,22.0,14.0,30.27,North,357,0.0,0.0,70,0.00,,,0.00,,2013-03-20 07:22:00,
2013-03-20 01:32:00,22.0,14.0,30.26,North,358,0.0,1.0,70,0.00,,,0.00,,2013-03-20 07:32:00,
2013-03-20 01:42:00,22.0,14.0,30.26,North,358,0.0,1.0,70,0.00,,,0.00,,2013-03-20 07:42:00,
2013-03-20 01:52:00,22.0,14.0,30.24,North,357,0.0,0.0,71,0.00,,,0.00,,2013-03-20 07:52:00,
2013-03-20 02:02:00,22.0,14.0,30.24,North,358,0.0,0.0,71,0.00,,,0.00,,2013-03-20 08:02:00,
2013-03-20 02:12:00,22.0,14.0,30.24,North,358,0.0,0.0,71,0.00,,,0.00,,2013-03-20 08:12:00,
2013-03-20 02:22:00,22.0,14.0,30.24,North,358,0.0,0.0,72,0.00,,,0.00,,2013-03-20 08:22:00,
2013-03-20 02:32:00,22.0,15.0,30.23,North,357,0.0,0.0,73,0.00,,,0.00,,2013-03-20 08:32:00,
2013-03-20 02:42:00,22.0,15.0,30.23,North,357,0.0,0.0,73,0.00,,,0.00,,2013-03-20 08:42:00,
2013-03-20 02:52:00,21.0,14.0,30.21,North,357,0.0,0.0,74,0.00,,,0.00,,2013-03-20 08:52:00,
2013-03-20 03:02:00,21.0,14.0,30.21,North,356,0.0,0.0,73,0.00,,,0.00,,2013-03-20 09:02:00,
2013-03-20 03:12:00,21.0,14.0,30.21,North,356,0.0,0.0,73,0.00,,,0.00,,2013-03-20 09:12:00,
2013-03-20 03:22:00,21.0,14.0,30.21,North,357,0.0,0.0,73,0.00,,,0.00,,2013-03-20 09:22:00,
2013-03-20 03:32:00,20.0,13.0,30.19,North,357,0.0,0.0,73,0.00,,,0.00,,2013-03-20 09:32:00,
2013-03-20 03:43:00,20.0,13.0,30.19,North,357,0.0,0.0,73,0.00,,,0.00,,2013-03-20 09:43:00,
2013-03-20 03:52:00,20.0,13.0,30.19,North,358,0.0,0.0,74,0.00,,,0.00,,2013-03-20 09:52:00,
2013-03-20 04:03:00,20.0,14.0,30.18,North,357,0.0,0.0,76,0.00,,,0.00,,2013-03-20 10:03:00,
2013-03-20 04:12:00,20.0,14.0,30.18,North,357,0.0,0.0,76,0.00,,,0.00,,2013-03-20 10:12:00,
2013-03-20 04:23:00,20.0,14.0,30.17,North,357,1.0,1.0,76,0.00,,,0.00,,2013-03-20 10:23:00,
2013-03-20 04:32:00,20.0,14.0,30.17,North,357,0.0,0.0,76,0.00,,,0.00,,2013-03-20 10:32:00,
2013-03-20 04:42:00,20.0,14.0,30.17,North,357,0.0,0.0,76,0.00,,,0.00,,2013-03-20 10:42:00,
2013-03-20 04:53:00,20.0,14.0,30.17,North,356,0.0,0.0,77,0.00,,,0.00,,2013-03-20 10:53:00,
2013-03-20 05:03:00,20.0,14.0,30.17,North,358,0.0,0.0,77,0.00,,,0.00,,2013-03-20 11:03:00,
2013-03-20 05:12:00,20.0,14.0,30.17,North,358,0.0,0.0,77,0.00,,,0.00,,2013-03-20 11:12:00,
2013-03-20 05:22:00,20.0,14.0,30.17,North,357,0.0,0.0,77,0.00,,,0.00,,2013-03-20 11:22:00,
2013-03-20 05:32:00,20.0,14.0,30.15,North,357,0.0,0.0,78,0.00,,,0.00,,2013-03-20 11:32:00,
2013-03-20 05:42:00,20.0,14.0,30.15,North,357,0.0,0.0,78,0.00,,,0.00,,2013-03-20 11:42:00,
2013-03-20 05:52:00,20.0,14.0,30.14,North,357,0.0,2.0,78,0.00,,,0.00,,2013-03-20 11:52:00,
2013-03-20 06:02:00,20.0,14.0,30.14,North,358,0.0,2.0,78,0.00,,,0.00,,2013-03-20 12:02:00,
2013-03-20 06:12:00,20.0,14.0,30.14,North,358,0.0,2.0,78,0.00,,,0.00,,2013-03-20 12:12:00,
2013-03-20 06:22:00,20.0,14.0,30.14,North,357,0.0,1.0,77,0.00,,,0.00,,2013-03-20 12:22:00,
2013-03-20 06:32:00,20.0,14.0,30.13,North,357,0.0,2.0,77,0.00,,,0.00,,2013-03-20 12:32:00,
2013-03-20 06:42:00,20.0,14.0,30.13,North,357,0.0,2.0,77,0.00,,,0.00,,2013-03-20 12:42:00,
2013-03-20 06:52:00,19.0,13.0,30.13,North,358,1.0,3.0,77,0.00,,,0.00,,2013-03-20 12:52:00,
2013-03-20 07:03:00,19.0,13.0,30.12,North,356,0.0,1.0,77,0.00,,,0.00,,2013-03-20 13:03:00,
2013-03-20 07:12:00,19.0,13.0,30.12,North,356,0.0,1.0,77,0.00,,,0.00,,2013-03-20 13:12:00,
2013-03-20 07:22:00,19.0,13.0,30.12,North,356,0.0,1.0,77,0.00,,,0.00,,2013-03-20 13:22:00,
2013-03-20 07:32:00,20.0,14.0,30.11,North,358,0.0,2.0,78,0.00,,,0.00,,2013-03-20 13:32:00,
2013-03-20 07:42:00,20.0,14.0,30.11,North,358,0.0,2.0,78,0.00,,,0.00,,2013-03-20 13:42:00,
2013-03-20 07:53:00,20.0,14.0,30.11,North,357,0.0,0.0,78,0.00,,,0.00,,2013-03-20 13:53:00,
2013-03-20 08:02:00,21.0,14.0,30.12,North,357,0.0,1.0,75,0.00,,,0.00,,2013-03-20 14:02:00,
2013-03-20 08:12:00,21.0,14.0,30.12,North,357,0.0,1.0,75,0.00,,,0.00,,2013-03-20 14:12:00,
2013-03-20 08:23:00,22.0,15.0,30.12,North,357,1.0,2.0,75,0.00,,,0.00,,2013-03-20 14:23:00,
2013-03-20 08:33:00,23.0,15.0,30.11,North,357,0.0,2.0,71,0.00,,,0.00,,2013-03-20 14:33:00,
2013-03-20 08:42:00,23.0,15.0,30.11,North,357,0.0,2.0,71,0.00,,,0.00,,2013-03-20 14:42:00,
2013-03-20 08:52:00,24.0,15.0,30.10,North,357,0.0,2.0,69,0.00,,,0.00,,2013-03-20 14:52:00,
2013-03-20 09:02:00,24.0,15.0,30.10,North,357,0.0,4.0,69,0.00,,,0.00,,2013-03-20 15:02:00,
2013-03-20 09:12:00,24.0,15.0,30.10,North,357,3.0,4.0,68,0.00,,,0.00,,2013-03-20 15:12:00,
2013-03-20 09:22:00,24.0,15.0,30.10,North,357,3.0,4.0,68,0.00,,,0.00,,2013-03-20 15:22:00,
2013-03-20 09:33:00,26.0,16.0,30.07,North,357,0.0,2.0,64,0.00,,,0.00,,2013-03-20 15:33:00,
2013-03-20 09:43:00,26.0,16.0,30.07,North,357,0.0,2.0,64,0.00,,,0.00,,2013-03-20 15:43:00,
2013-03-20 09:52:00,26.0,16.0,30.07,North,357,0.0,4.0,65,0.00,,,0.00,,2013-03-20 15:52:00,
2013-03-20 10:03:00,27.0,16.0,30.06,North,356,2.0,5.0,63,0.00,,,0.00,,2013-03-20 16:03:00,
2013-03-20 10:12:00,27.0,16.0,30.06,North,356,2.0,5.0,63,0.00,,,0.00,,2013-03-20 16:12:00,
2013-03-20 10:23:00,28.0,16.0,30.06,North,356,0.0,4.0,61,0.00,,,0.00,,2013-03-20 16:23:00,
2013-03-20 10:33:00,31.0,18.0,30.03,North,354,0.0,4.0,58,0.00,,,0.00,,2013-03-20 16:33:00,
2013-03-20 10:42:00,31.0,18.0,30.03,North,354,0.0,4.0,58,0.00,,,0.00,,2013-03-20 16:42:00,
2013-03-20 10:52:00,31.0,18.0,30.02,North,354,1.0,5.0,58,0.00,,,0.00,,2013-03-20 16:52:00,
2013-03-20 11:03:00,32.0,19.0,30.03,North,352,0.0,6.0,57,0.00,,,0.00,,2013-03-20 17:03:00,
2013-03-20 11:12:00,32.0,19.0,30.03,North,352,0.0,6.0,57,0.00,,,0.00,,2013-03-20 17:12:00,
2013-03-20 11:22:00,32.0,19.0,30.03,North,352,0.0,6.0,57,0.00,,,0.00,,2013-03-20 17:22:00,
2013-03-20 11:32:00,33.0,18.0,29.99,North,352,0.0,3.0,53,0.00,,,0.00,,2013-03-20 17:32:00,
2013-03-20 11:42:00,33.0,18.0,29.99,North,352,0.0,3.0,53,0.00,,,0.00,,2013-03-20 17:42:00,
2013-03-20 11:52:00,33.0,18.0,29.99,North,353,1.0,3.0,53,0.00,,,0.00,,2013-03-20 17:52:00,
2013-03-20 12:02:00,35.0,19.0,29.99,North,353,1.0,3.0,52,0.00,,,0.00,,2013-03-20 18:02:00,
2013-03-20 12:12:00,35.0,19.0,29.99,North,353,1.0,3.0,52,0.00,,,0.00,,2013-03-20 18:12:00,
2013-03-20 12:22:00,36.0,20.0,29.97,North,353,0.0,3.0,51,0.00,,,0.00,,2013-03-20 18:22:00,
2013-03-20 12:33:00,36.0,18.0,29.96,North,354,0.0,4.0,48,0.00,,,0.00,,2013-03-20 18:33:00,
2013-03-20 12:42:00,36.0,18.0,29.96,North,354,0.0,4.0,48,0.00,,,0.00,,2013-03-20 18:42:00,
2013-03-20 12:53:00,36.0,19.0,29.96,North,354,4.0,5.0,49,0.00,,,0.00,,2013-03-20 18:53:00,
2013-03-20 13:02:00,36.0,19.0,29.94,North,351,3.0,5.0,49,0.00,,,0.00,,2013-03-20 19:02:00,
2013-03-20 13:12:00,36.0,19.0,29.94,North,351,3.0,5.0,49,0.00,,,0.00,,2013-03-20 19:12:00,
2013-03-20 13:22:00,36.0,19.0,29.94,NNW,344,5.0,7.0,49,0.00,,,0.00,,2013-03-20 19:22:00,
2013-03-20 13:32:00,38.0,19.0,29.92,NNW,344,4.0,6.0,45,0.00,,,0.00,,2013-03-20 19:32:00,
2013-03-20 13:42:00,38.0,19.0,29.92,NNW,344,4.0,6.0,45,0.00,,,0.00,,2013-03-20 19:42:00,
2013-03-20 13:53:00,39.0,19.0,29.90,North,353,4.0,9.0,45,0.00,,,0.00,,2013-03-20 19:53:00,
2013-03-20 14:02:00,41.0,19.0,29.90,NE,44,3.0,6.0,40,0.00,,,0.00,,2013-03-20 20:02:00,
2013-03-20 14:13:00,41.0,19.0,29.90,NE,44,3.0,6.0,40,0.00,,,0.00,,2013-03-20 20:13:00,
2013-03-20 14:22:00,40.0,18.0,29.89,NNE,30,0.0,6.0,41,0.00,,,0.00,,2013-03-20 20:22:00,
2013-03-20 14:32:00,40.0,18.0,29.87,NNW,339,6.0,6.0,40,0.00,,,0.00,,2013-03-20 20:32:00,
2013-03-20 14:42:00,40.0,18.0,29.87,NNW,339,6.0,6.0,40,0.00,,,0.00,,2013-03-20 20:42:00,
2013-03-20 14:53:00,41.0,18.0,29.87,NNE,25,3.0,7.0,39,0.00,,,0.00,,2013-03-20 20:53:00,
2013-03-20 15:02:00,41.0,19.0,29.87,NNE,13,1.0,8.0,40,0.00,,,0.00,,2013-03-20 21:02:00,
2013-03-20 15:12:00,41.0,19.0,29.87,NNE,13,1.0,8.0,40,0.00,,,0.00,,2013-03-20 21:12:00,
2013-03-20 15:22:00,42.0,18.0,29.85,NNE,14,4.0,5.0,38,0.00,,,0.00,,2013-03-20 21:22:00,
2013-03-20 15:33:00,43.0,18.0,29.84,North,354,2.0,5.0,36,0.00,,,0.00,,2013-03-20 21:33:00,
2013-03-20 15:42:00,43.0,18.0,29.84,North,354,2.0,5.0,36,0.00,,,0.00,,2013-03-20 21:42:00,
2013-03-20 15:53:00,43.0,17.0,29.85,NNE,16,0.0,4.0,34,0.00,,,0.00,,2013-03-20 21:53:00,
2013-03-20 16:03:00,43.0,18.0,29.83,NNE,32,0.0,6.0,36,0.00,,,0.00,,2013-03-20 22:03:00,
2013-03-20 16:12:00,43.0,18.0,29.83,NNE,32,0.0,6.0,36,0.00,,,0.00,,2013-03-20 22:12:00,
2013-03-20 16:23:00,44.0,17.0,29.83,NE,42,1.0,6.0,33,0.00,,,0.00,,2013-03-20 22:23:00,
2013-03-20 16:32:00,44.0,17.0,29.82,NE,46,0.0,3.0,33,0.00,,,0.00,,2013-03-20 22:32:00,
2013-03-20 16:42:00,44.0,17.0,29.82,NE,46,0.0,3.0,33,0.00,,,0.00,,2013-03-20 22:42:00,
2013-03-20 16:52:00,44.0,16.0,29.82,NE,46,2.0,5.0,32,0.00,,,0.00,,2013-03-20 22:52:00,
2013-03-20 17:02:00,43.0,15.0,29.82,NNE,25,6.0,7.0,32,0.00,,,0.00,,2013-03-20 23:02:00,
2013-03-20 17:12:00,43.0,15.0,29.82,NNE,25,6.0,7.0,32,0.00,,,0.00,,2013-03-20 23:12:00,
2013-03-20 17:22:00,43.0,14.0,29.81,NE,34,0.0,5.0,30,0.00,,,0.00,,2013-03-20 23:22:00,
2013-03-20 17:32:00,44.0,15.0,29.79,NNE,29,0.0,7.0,30,0.00,,,0.00,,2013-03-20 23:32:00,
2013-03-20 17:42:00,44.0,15.0,29.79,NNE,29,0.0,7.0,30,0.00,,,0.00,,2013-03-20 23:42:00,
2013-03-20 17:53:00,44.0,15.0,29.79,NNE,29,0.0,7.0,30,0.00,,,0.00,,2013-03-20 23:53:00,
2013-03-20 18:02:00,44.0,15.0,29.78,SW,227,2.0,7.0,31,0.00,,,0.00,,2013-03-21 00:02:00,
2013-03-20 18:12:00,44.0,15.0,29.78,SW,227,2.0,7.0,31,0.00,,,0.00,,2013-03-21 00:12:00,
2013-03-20 18:23:00,44.0,16.0,29.79,SW,226,0.0,3.0,32,0.00,,,0.00,,2013-03-21 00:23:00,
2013-03-20 18:32:00,44.0,17.0,29.79,SW,225,0.0,3.0,33,0.00,,,0.00,,2013-03-21 00:32:00,
2013-03-20 18:42:00,44.0,17.0,29.79,SW,225,0.0,3.0,33,0.00,,,0.00,,2013-03-21 00:42:00,
2013-03-20 18:52:00,43.0,17.0,29.79,NNW,330,2.0,5.0,34,0.00,,,0.00,,2013-03-21 00:52:00,
2013-03-20 19:02:00,42.0,17.0,29.78,NNW,331,0.0,1.0,36,0.00,,,0.00,,2013-03-21 01:02:00,
2013-03-20 19:12:00,42.0,17.0,29.78,NNW,331,0.0,1.0,36,0.00,,,0.00,,2013-03-21 01:12:00,
2013-03-20 19:22:00,42.0,17.0,29.76,WSW,242,0.0,7.0,36,0.00,,,0.00,,2013-03-21 01:22:00,
2013-03-20 19:32:00,41.0,17.0,29.76,SSE,162,1.0,7.0,38,0.00,,,0.00,,2013-03-21 01:32:00,
2013-03-20 19:42:00,41.0,17.0,29.76,SSE,162,1.0,7.0,38,0.00,,,0.00,,2013-03-21 01:42:00,
2013-03-20 19:53:00,41.0,19.0,29.77,SW,225,3.0,10.0,40,0.00,,,0.00,,2013-03-21 01:53:00,
2013-03-20 20:02:00,41.0,20.0,29.77,SW,219,0.0,4.0,42,0.00,,,0.00,,2013-03-21 02:02:00,
2013-03-20 20:12:00,41.0,20.0,29.77,SW,219,0.0,4.0,42,0.00,,,0.00,,2013-03-21 02:12:00,
2013-03-20 20:22:00,48.0,21.0,29.74,WNW,291,9.0,24.0,34,0.00,,,0.00,,2013-03-21 02:22:00,
2013-03-20 20:32:00,51.0,20.0,29.74,West,272,14.0,27.0,29,0.00,,,0.00,,2013-03-21 02:32:00,
2013-03-20 20:42:00,51.0,20.0,29.74,West,272,14.0,27.0,29,0.00,,,0.00,,2013-03-21 02:42:00,
2013-03-20 20:52:00,51.0,20.0,29.74,West,272,14.0,27.0,29,0.00,,,0.00,,2013-03-21 02:52:00,
2013-03-20 21:02:00,50.0,21.0,29.74,West,279,10.0,21.0,31,0.00,,,0.00,,2013-03-21 03:02:00,
2013-03-20 21:12:00,50.0,21.0,29.74,West,279,10.0,21.0,31,0.00,,,0.00,,2013-03-21 03:12:00,
2013-03-20 21:22:00,50.0,21.0,29.73,West,279,13.0,22.0,31,0.00,,,0.00,,2013-03-21 03:22:00,
2013-03-20 21:33:00,49.0,20.0,29.73,WNW,285,9.0,18.0,32,0.00,,,0.00,,2013-03-21 03:33:00,
2013-03-20 21:43:00,49.0,20.0,29.73,WNW,285,9.0,18.0,32,0.00,,,0.00,,2013-03-21 03:43:00,
2013-03-20 21:53:00,49.0,20.0,29.73,WNW,286,10.0,12.0,31,0.00,,,0.00,,2013-03-21 03:53:00,
2013-03-20 22:03:00,49.0,20.0,29.73,West,271,12.0,14.0,32,0.00,,,0.00,,2013-03-21 04:03:00,
2013-03-20 22:13:00,49.0,20.0,29.73,West,271,12.0,14.0,32,0.00,,,0.00,,2013-03-21 04:13:00,
2013-03-20 22:23:00,50.0,21.0,29.72,West,267,7.0,25.0,32,0.00,,,0.00,,2013-03-21 04:23:00,
2013-03-20 22:33:00,50.0,21.0,29.72,West,268,9.0,20.0,32,0.00,,,0.00,,2013-03-21 04:33:00,
2013-03-20 22:43:00,50.0,21.0,29.72,West,268,9.0,20.0,32,0.00,,,0.00,,2013-03-21 04:43:00,
2013-03-20 22:53:00,50.0,21.0,29.72,West,273,16.0,22.0,32,0.00,,,0.00,,2013-03-21 04:53:00,
2013-03-20 23:02:00,50.0,21.0,29.72,WNW,296,2.0,21.0,31,0.00,,,0.00,,2013-03-21 05:02:00,
2013-03-20 23:12:00,50.0,21.0,29.72,WNW,296,2.0,21.0,31,0.00,,,0.00,,2013-03-21 05:12:00,
2013-03-20 23:22:00,50.0,21.0,29.72,WNW,288,7.0,21.0,32,0.00,,,0.00,,2013-03-21 05:22:00,
2013-03-20 23:32:00,49.0,22.0,29.71,WNW,285,4.0,15.0,34,0.00,,,0.00,,2013-03-21 05:32:00,
2013-03-20 23:43:00,49.0,22.0,29.71,WNW,285,4.0,15.0,34,0.00,,,0.00,,2013-03-21 05:43:00,
2013-03-20 23:52:00,49.0,23.0,29.71,WNW,298,3.0,17.0,35,0.00,,,0.00,,2013-03-21 05:52:00,